Location: Équennes
(49.7375°N, 1.9622°E)
Time: 01:25:14
(UTC+00:00)

SL-08 ROCKET BODY - Pass Details

Date: 28 January 2023
Orbit: 896 x 962 km, 83.0° (Epoch: 30 March)

Event Time Altitude Azimuth Distance (km) Brightness Sun altitude
Rises 18:04:03 0° 353° (N) 3,569 7.4 -13.6°
Reaches altitude 10° 18:06:37 10° 358° (N) 2,614 6.7 -14.0°
Maximum altitude 18:12:25 52° 75° (ENE) 1,116 4.4 -14.9°
Drops below altitude 10° 18:18:06 10° 151° (SSE) 2,569 6.5 -15.8°
Sets 18:20:36 0° 156° (SSE) 3,502 7.3 -16.2°
